Flag for Norway Weather past 2 weeks in Lillesand, Norway

Now
47 °F

Cool.


Feels Like: 44 °F
Forecast: 44 / 60 °F
Wind: 7 mph from West

Location: Kristiansand / Kjevik

Current Time: May 23, 2015 at 12:09:43 AM

Latest Report: May 22, 2015 at 10:00 PM


Visibility: N/A

Pressure: 29.92 "Hg

Humidity: 78%

Dew point: 41 °F

Location of LillesandLocation

Historic Weather in Lillesand — Graph

°F

Lillesand temperature yesterday

Maximum temperature yesterday: 55 °F (at 3:00 PM)
Minimum temperature yesterday: 47 °F (at 10:00 PM)
Average temperature yesterday: 50 °F

Past Weeks' High & Low Weather Summary

 TemperatureHumidityPressure
High60 °F (May 13, 3:00 PM)100% (May 20, 7:00 AM)30.20 "Hg (May 20, 7:00 AM)
Low31 °F (May 9, 4:00 AM)29% (May 10, 1:00 PM)29.32 "Hg (May 19, 4:00 AM)
Average48 °F75%29.86 "Hg
* Reported May 7 10:00 PM — May 22 10:00 PM, Lillesand, Weather by CustomWeather, © 2015

Note: Actual official high and low records may vary slightly from our data, if they occured in-between our weather recording intervals... More about our weather records

Advertising

Lillesand weather history for previous 24 hours

 ConditionsComfort  
Time TempWeatherWind HumidityBarometerVisibility
10:00 PM
Fri, May 22
47 °FCool.7 mph78%29.92 "HgN/A
9:00 PM48 °FCool.7 mph82%29.91 "HgN/A
8:00 PM47 °FCool.6 mph80%29.90 "HgN/A
7:00 PM49 °FCool.8 mph77%29.90 "HgN/A
6:00 PM52 °FCool.8 mph90%29.88 "HgN/A
5:00 PM52 °FCool.7 mph91%29.90 "HgN/A
4:00 PM53 °FCool.8 mph90%29.93 "HgN/A
3:00 PM55 °FCool.8 mph84%29.95 "HgN/A
2:00 PM53 °FCool.8 mph86%29.96 "HgN/A
1:00 PM53 °FCool.8 mph86%29.98 "HgN/A
12:00 PM51 °FCool.8 mph90%29.99 "HgN/A
11:00 AM52 °FCool.7 mph90%30.01 "HgN/A
10:00 AM52 °FCool.7 mph86%30.02 "HgN/A
9:00 AM51 °FCool.7 mph87%30.03 "HgN/A
8:00 AM50 °FCool.6 mph86%30.03 "HgN/A
7:00 AM50 °FCool.7 mph85%30.04 "HgN/A
6:00 AM48 °FCool.6 mph90%30.06 "HgN/A
5:00 AM48 °FCool.6 mph85%30.08 "HgN/A
4:00 AM48 °FCool.6 mph83%30.09 "HgN/A
3:00 AM48 °FCool.6 mph83%30.09 "HgN/A
2:00 AM48 °FCool.6 mph81%30.11 "HgN/A
1:00 AM49 °FCool.5 mph83%30.10 "HgN/A
12:00 AM49 °FCool.3 mph81%30.11 "HgN/A
Weather by CustomWeather, © 2015

See weather overviewHow to use our weather pages